Weather History for KMZH - October, 2012

Change the Weather History Date:

Thursday, October 4, 2012

  Actual Average Record
Temperature  
Mean Temperature 47 °F -  
Max Temperature 57 °F 61 °F 80 °F (1969)
Min Temperature 37 °F 38 °F 19 °F (1989)
Degree Days  
Heating Degree Days 18    
Moisture  
Dew Point 30 °F    
Average Humidity 58    
Maximum Humidity 81    
Minimum Humidity 39    
Precipitation  
Precipitation 0.00 in - - ()
Sea Level Pressure  
Sea Level Pressure 29.83 in    
Wind  
Wind Speed 8 mph (WSW)    
Max Wind Speed 24 mph    
Max Gust Speed 37 mph    
Visibility 10 miles    
Events      
Averages and records for this station are not official NWS values.
T = Trace of Precipitation, MM = Missing Value Source: NWS Daily Summary

Daily Weather History Graph

Daily Weather History Graph

Search for Another Location

Airport or City:

Trip Planner

Search our weather history database for the weather conditions in past years. The results will help you decide how hot, cold, wet, or windy it might be!

Date:

Astronomy

Oct. 04, 2012 Rise Set
Actual Time 7:14 AM CDT 6:44 PM CDT
Civil Twilight 6:44 AM CDT 7:14 PM CDT
Nautical Twilight 6:09 AM CDT 7:49 PM CDT
Astronomical Twilight 5:34 AM CDT 8:24 PM CDT
Moon 9:04 PM CDT (10/4) 11:47 AM CDT (10/4)
Length of Visible Light 12h 29m
Length of Day
11h 29m
Waning Gibbous, 82% of the Moon is Illuminated
Oct 4
Waning Gibbous
Oct 8
Last Quarter
Oct 15
New
Oct 21
First Quarter
Oct 29
Full

Hourly Weather History & Observations

Time (CDT) Temp. Windchill Dew Point Humidity Pressure Visibility Wind Dir Wind Speed Gust Speed Precip Events Conditions
12:10 AM 50.0 °F - 39.2 °F 66% 29.85 in 10.0 mi Calm Calm - N/A   Clear
12:30 AM 51.8 °F - 39.2 °F 62% 29.84 in 10.0 mi Calm Calm - N/A   Scattered Clouds
12:50 AM 50.0 °F - 39.2 °F 66% 29.83 in 10.0 mi Calm Calm - N/A   Scattered Clouds
1:10 AM 50.0 °F - 41.0 °F 71% 29.82 in 10.0 mi Calm Calm - N/A   Clear
1:30 AM 48.2 °F - 41.0 °F 76% 29.81 in 10.0 mi Calm Calm - N/A   Clear
1:50 AM 48.2 °F - 41.0 °F 76% 29.80 in 10.0 mi Calm Calm - N/A   Clear
2:10 AM 48.2 °F - 41.0 °F 76% 29.79 in 10.0 mi Calm Calm - N/A   Clear
2:30 AM 46.4 °F - 41.0 °F 81% 29.77 in 10.0 mi Calm Calm - N/A   Clear
2:50 AM 48.2 °F - 41.0 °F 76% 29.77 in 10.0 mi Calm Calm - N/A   Clear
3:10 AM 48.2 °F - 41.0 °F 76% 29.76 in 10.0 mi Calm Calm - N/A   Clear
3:30 AM 46.4 °F - 41.0 °F 81% 29.74 in 10.0 mi Calm Calm - N/A   Clear
3:50 AM 46.4 °F - 41.0 °F 81% 29.73 in 10.0 mi Calm Calm - N/A   Scattered Clouds
4:10 AM 46.4 °F - 41.0 °F 81% 29.72 in 10.0 mi Calm Calm - N/A   Scattered Clouds
4:30 AM 50.0 °F - 41.0 °F 71% 29.70 in 10.0 mi Calm Calm - N/A   Mostly Cloudy
4:50 AM 50.0 °F - 41.0 °F 71% 29.69 in 10.0 mi Calm Calm - N/A   Overcast
5:10 AM 50.0 °F - 41.0 °F 71% 29.68 in 10.0 mi Calm Calm - N/A   Scattered Clouds
5:30 AM 57.2 °F - 37.4 °F 48% 29.67 in 10.0 mi SSE 3.5 mph - N/A   Mostly Cloudy
5:50 AM 55.4 °F - 37.4 °F 51% 29.66 in 10.0 mi SSE 6.9 mph - N/A   Scattered Clouds
6:10 AM 55.4 °F - 35.6 °F 47% 29.65 in 10.0 mi South 8.1 mph - N/A   Clear
6:30 AM 57.2 °F - 33.8 °F 41% 29.66 in 10.0 mi SSW 13.8 mph 19.6 mph N/A   Clear
6:50 AM 53.6 °F - 32.0 °F 44% 29.67 in 10.0 mi SSW 21.9 mph 27.6 mph N/A   Clear
7:10 AM 50.0 °F - 33.8 °F 54% 29.69 in 10.0 mi SSW 18.4 mph 32.2 mph N/A   Scattered Clouds
7:35 AM 48.2 °F - 35.6 °F 62% 29.69 in 10.0 mi SSW 12.7 mph 25.3 mph N/A   Overcast
7:50 AM 48.2 °F - 35.6 °F 62% 29.69 in 10.0 mi SSW 11.5 mph 20.7 mph N/A   Overcast
8:10 AM 48.2 °F - 35.6 °F 62% 29.70 in 10.0 mi SSW 13.8 mph 24.2 mph N/A   Overcast
8:30 AM 46.4 °F 40.4 °F 33.8 °F 62% 29.70 in 10.0 mi SSW 13.8 mph 20.7 mph N/A   Overcast
8:50 AM 46.4 °F 39.2 °F 35.6 °F 66% 29.70 in 10.0 mi SSW 18.4 mph 25.3 mph N/A   Overcast
9:10 AM 46.4 °F 39.5 °F 33.8 °F 62% 29.71 in 10.0 mi SSW 17.3 mph 20.7 mph N/A   Overcast
9:30 AM 46.4 °F 40.1 °F 33.8 °F 62% 29.71 in 10.0 mi SSW 15.0 mph 21.9 mph N/A   Overcast
9:50 AM 46.4 °F 40.7 °F 33.8 °F 62% 29.72 in 10.0 mi SW 12.7 mph 24.2 mph N/A   Overcast
10:10 AM 44.6 °F 36.6 °F 33.8 °F 66% 29.73 in 10.0 mi SW 19.6 mph 32.2 mph N/A   Overcast
10:30 AM 44.6 °F 37.2 °F 32.0 °F 61% 29.74 in 10.0 mi SW 17.3 mph 28.8 mph N/A   Overcast
10:50 AM 42.8 °F 35.4 °F 32.0 °F 66% 29.75 in 10.0 mi SW 15.0 mph 28.8 mph N/A   Overcast
11:30 AM 42.8 °F 34.0 °F 30.2 °F 61% 29.78 in 10.0 mi WSW 20.7 mph 29.9 mph N/A   Overcast
11:50 AM 42.8 °F 34.8 °F 30.2 °F 61% 29.79 in 10.0 mi WSW 17.3 mph 27.6 mph N/A   Overcast
12:10 PM 42.8 °F 34.5 °F 28.4 °F 57% 29.80 in 10.0 mi WSW 18.4 mph 31.1 mph N/A   Overcast
12:30 PM 42.8 °F 33.3 °F 28.4 °F 57% 29.81 in 10.0 mi WSW 24.2 mph 34.5 mph N/A   Overcast
12:50 PM 42.8 °F 34.0 °F 26.6 °F 53% 29.82 in 10.0 mi WSW 20.7 mph 33.4 mph N/A   Overcast
1:10 PM 42.8 °F 35.4 °F 26.6 °F 53% 29.83 in 10.0 mi WSW 15.0 mph 33.4 mph N/A   Overcast
1:30 PM 42.8 °F 34.0 °F 26.6 °F 53% 29.84 in 10.0 mi WSW 20.7 mph 25.3 mph N/A   Overcast
1:50 PM 44.6 °F 36.9 °F 24.8 °F 46% 29.84 in 10.0 mi West 18.4 mph 25.3 mph N/A   Overcast
2:10 PM 44.6 °F 36.1 °F 23.0 °F 43% 29.85 in 10.0 mi WSW 21.9 mph 29.9 mph N/A   Overcast
2:30 PM 44.6 °F 37.4 °F 21.2 °F 39% 29.86 in 10.0 mi West 16.1 mph 35.7 mph N/A   Overcast
2:50 PM 44.6 °F 37.4 °F 21.2 °F 39% 29.87 in 10.0 mi West 16.1 mph 27.6 mph N/A   Overcast
3:10 PM 44.6 °F 36.6 °F 21.2 °F 39% 29.87 in 10.0 mi West 19.6 mph 34.5 mph N/A   Overcast
3:30 PM 44.6 °F 36.1 °F 23.0 °F 43% 29.88 in 10.0 mi West 21.9 mph 26.5 mph N/A   Overcast
3:50 PM 42.8 °F 33.8 °F 23.0 °F 46% 29.89 in 10.0 mi West 21.9 mph 36.8 mph N/A   Overcast
4:10 PM 42.8 °F 35.8 °F 23.0 °F 46% 29.90 in 10.0 mi West 13.8 mph 32.2 mph N/A   Overcast
4:30 PM 42.8 °F 35.1 °F 23.0 °F 46% 29.91 in 10.0 mi West 16.1 mph 34.5 mph N/A   Overcast
4:50 PM 42.8 °F 35.4 °F 23.0 °F 46% 29.92 in 10.0 mi West 15.0 mph 32.2 mph N/A   Overcast
5:10 PM 42.8 °F 35.8 °F 23.0 °F 46% 29.92 in 10.0 mi West 13.8 mph 26.5 mph N/A   Overcast
5:30 PM 41.0 °F 31.9 °F 23.0 °F 49% 29.93 in 10.0 mi West 19.6 mph 29.9 mph N/A   Overcast
5:50 PM 41.0 °F 31.9 °F 23.0 °F 49% 29.93 in 10.0 mi West 19.6 mph 26.5 mph N/A   Overcast
6:10 PM 41.0 °F 32.2 °F 23.0 °F 49% 29.94 in 10.0 mi West 18.4 mph 32.2 mph N/A   Overcast
6:30 PM 41.0 °F 32.2 °F 23.0 °F 49% 29.94 in 10.0 mi West 18.4 mph 28.8 mph N/A   Overcast
6:50 PM 41.0 °F 35.2 °F 23.0 °F 49% 29.95 in 10.0 mi West 9.2 mph 29.9 mph N/A   Overcast
7:10 PM 41.0 °F 31.9 °F 23.0 °F 49% 29.95 in 10.0 mi West 19.6 mph 27.6 mph N/A   Overcast
7:30 PM 39.2 °F 30.2 °F 23.0 °F 52% 29.96 in 10.0 mi West 17.3 mph 24.2 mph N/A   Overcast
8:10 PM 39.2 °F 30.2 °F 23.0 °F 52% 29.96 in 10.0 mi West 17.3 mph 25.3 mph N/A   Overcast
8:30 PM 37.4 °F 28.5 °F 23.0 °F 56% 29.97 in 10.0 mi West 15.0 mph 27.6 mph N/A   Overcast
8:50 PM 37.4 °F 29.3 °F 23.0 °F 56% 29.97 in 10.0 mi West 12.7 mph 27.6 mph N/A   Overcast
9:10 PM 37.4 °F 27.8 °F 23.0 °F 56% 29.97 in 10.0 mi West 17.3 mph 33.4 mph N/A   Overcast
9:30 PM 37.4 °F 30.3 °F 23.0 °F 56% 29.97 in 10.0 mi West 10.4 mph 24.2 mph N/A   Overcast
9:50 PM 37.4 °F 30.3 °F 23.0 °F 56% 29.97 in 10.0 mi West 10.4 mph 25.3 mph N/A   Overcast
10:10 PM 37.4 °F 27.8 °F 23.0 °F 56% 29.97 in 10.0 mi West 17.3 mph 27.6 mph N/A   Overcast
10:30 PM 37.4 °F 28.2 °F 23.0 °F 56% 29.98 in 10.0 mi West 16.1 mph 25.3 mph N/A   Overcast
10:50 PM 37.4 °F 27.5 °F 21.2 °F 52% 29.98 in 10.0 mi West 18.4 mph 27.6 mph N/A   Overcast
11:11 PM 37.4 °F 27.8 °F 21.2 °F 52% 29.98 in 10.0 mi West 17.3 mph 27.6 mph N/A   Overcast
11:30 PM 37.4 °F 30.3 °F 21.2 °F 52% 29.99 in 10.0 mi West 10.4 mph 25.3 mph N/A   Overcast
11:50 PM 37.4 °F 28.2 °F 23.0 °F 56% 29.98 in 10.0 mi West 16.1 mph 23.0 mph N/A   Overcast